Regional Weather Roundup
Issued by NWS

Home | Current Version | Previous Version | Graphics & Text | Print | Product List | Glossary On
Versions: 1 2 3 4 5 6 7 8 9 10 11 12 13 14 15 16 17 18 19 20 21 22 23 24 25 26 27 28 29 30 31 32 33 34 35 36 37 38 39 40 41 42 43 44 45 46 47 48 49 50
000
ASUS45 KABQ 250301
RWRNM
NEW MEXICO REGIONAL WEATHER ROUNDUP
NATIONAL WEATHER SERVICE ALBUQUERQUE NM
900 PM MDT SAT SEP 24 2016

NOTE: "FAIR" MEANS FEW OR NO CLOUDS BELOW 12,000 FEET AGL WITH NO
       SIGNIFICANT WEATHER OR OBSTRUCTIONS TO VISION.

      THIS PRODUCT IS RELEASED AS TWO VERSIONS.  ONE VERSION NEAR
      THE TOP OF THE HOUR CONTAINING PRELIMINARY DATA FROM ALBUQUERQUE
      AND OTHER STATIONS.  A FINAL VERSION WITH ADDITIONAL DATA IS
      ISSUED ABOUT 10 MINUTES AFTER THE HOUR.

NMZ501-503-504-510>518-250400-
NORTHWEST PLATEAU/NORTHCENTRAL MOUNTAINS

CITY           SKY/WX    TMP DP  RH WIND       PRES   REMARKS
FARMINGTON     FAIR      55  33  43 W10       30.21R
LOS ALAMOS     FAIR      52  30  42 NW9       30.25R
SANTA FE       FAIR      56  32  40 N12       30.19R
TAOS           FAIR      46  30  53 SE7       30.24R
ANGEL FIRE     FAIR      40  31  71 SW3       30.30R

$$
NMZ402-403-502-505>509-250400-
WESTCENTRAL MOUNTAINS/SOUTHWEST MOUNTAINS

CITY           SKY/WX    TMP DP  RH WIND       PRES   REMARKS
GALLUP         FAIR      54  30  40 NE10      30.27R
SILVER CITY    FAIR      56  31  37 NW9       30.12R

$$
NMZ407-409-411-412-250400-
SOUTHERN DESERTS

CITY           SKY/WX    TMP DP  RH WIND       PRES   REMARKS
DEMING         FAIR      68  35  29 W9        30.05R
LAS CRUCES     FAIR      68  34  28 W7        30.05R
HOLLOMAN AFB   FAIR      71  39  30 E3        30.01R
ALAMOGORDO     MOCLDY    68  37  32 E7        30.03R
T OR C         FAIR      69  36  29 NW7       30.05R

$$
NMZ519>523-250400-
CENTRAL VALLEYS/CENTRAL HIGHLANDS

CITY           SKY/WX    TMP DP  RH WIND       PRES   REMARKS
ALBUQUERQUE    FAIR      63  32  31 N16       30.15R
DOUBLE EAGLE   CLEAR     57  32  38 NW13      30.19R
CLINES CORNERS FAIR      49  32  52 NW13      30.21R
BELEN          NOT AVBL
SOCORRO        FAIR      65  29  26 N13G24    30.11R

$$
NMZ524>526-539-540-250400-
SOUTHCENTRAL MOUNTAINS

CITY           SKY/WX    TMP DP  RH WIND       PRES   REMARKS
RUIDOSO        FAIR      55  28  35 W8        30.21R

$$
NMZ527>531-250400-
NORTHEAST HIGHLANDS/NORTHEAST PLAINS

CITY           SKY/WX    TMP DP  RH WIND       PRES   REMARKS
LAS VEGAS      FAIR      50  30  46 NW8       30.17R
RATON          FAIR      52  31  44 N7        30.15R
CLAYTON        FAIR      58  39  49 N10       30.07R

$$
NMZ532>537-250400-
EASTCENTRAL PLAINS

CITY           SKY/WX    TMP DP  RH WIND       PRES   REMARKS
TUCUMCARI      FAIR      63  29  27 SW7       30.01R
CANNON AFB     FAIR      66  32  28 N6        30.05R
CLOVIS AIRPORT FAIR      63  36  36 NW9       30.04R

$$
NMZ028-029-538-250400-
SOUTHEAST PLAINS

CITY           SKY/WX    TMP DP  RH WIND       PRES   REMARKS
ROSWELL        FAIR      69  44  40 N7        29.99R
ARTESIA        FAIR      66  48  52 SW12      29.98R
CARLSBAD       FAIR      69  47  45 W12       29.96R
HOBBS          FAIR      68  59  73 CALM      30.02R


$$




USA.gov is the U.S. government's official web portal to all federal, state and local government web resources and services.